Date,TemperatureHighF,TemperatureAvgF,TemperatureLowF,DewpointHighF,DewpointAvgF,DewpointLowF,HumidityHigh,HumidityAvg,HumidityLow,PressureMaxIn,PressureMinIn,WindSpeedMaxMPH,WindSpeedAvgMPH,GustSpeedMaxMPH,PrecipitationSumIn
2014-2-1,38.0,27.9,16.2,33.6,23.4,12.9,95,84,66,30.26,29.82,0,0,0,0.03
2014-2-2,35.5,30.2,26.0,33.7,27.5,22.7,95,90,82,30.19,29.82,0,0,0,0.32
2014-2-3,28.9,20.8,13.9,23.0,14.4,10.5,90,77,56,30.36,30.18,0,0,0,0.05
2014-2-4,24.6,17.9,11.4,17.0,11.8,8.3,89,77,58,30.51,30.36,0,0,0,0.00
2014-2-5,19.5,15.7,6.9,16.7,12.6,2.3,90,87,79,30.36,29.88,0,0,0,0.00
2014-2-6,16.8,7.7,-5.1,11.9,2.2,-8.7,86,78,62,30.35,30.16,0,0,0,0.00
2014-2-7,19.2,15.5,12.5,12.2,9.5,6.2,87,77,63,30.23,30.14,0,0,0,0.00
2014-2-8,22.2,15.2,9.5,13.5,9.0,4.7,88,77,55,30.28,30.19,0,0,0,0.00
2014-2-9,22.5,16.1,12.1,14.4,11.2,8.8,90,82,58,30.20,30.01,0,0,0,0.01
2014-2-10,21.6,12.8,7.6,12.9,9.0,5.0,90,85,66,30.26,30.03,0,0,0,0.00
2014-2-11,15.2,6.1,-7.7,7.0,0.0,-12.3,88,76,56,30.56,30.26,0,0,0,0.00
2014-2-12,25.5,5.5,-13.0,7.2,-3.2,-17.7,85,69,44,30.59,30.25,0,0,0,0.00
2014-2-13,25.2,15.3,0.9,15.1,8.7,-4.6,90,75,61,30.25,29.51,0,0,0,0.00
2014-2-14,24.4,21.2,16.3,22.0,18.8,14.1,93,90,85,29.72,29.29,0,0,0,0.00
2014-2-15,30.2,21.9,10.5,25.2,18.4,7.9,93,86,71,29.88,29.72,0,0,0,0.00
2014-2-16,18.0,8.9,-0.7,9.2,0.7,-6.7,85,70,48,30.21,29.88,0,0,0,0.00
2014-2-17,17.8,3.6,-10.1,0.2,-6.3,-14.1,83,65,38,30.50,30.22,0,0,0,0.00
2014-2-18,32.2,20.0,-0.4,29.1,14.7,-6.7,90,80,63,30.23,29.93,0,0,0,0.00
2014-2-19,45.6,34.7,23.9,34.3,27.0,19.2,92,74,52,29.99,29.60,0,0,0,0.26
2014-2-20,38.7,33.4,27.8,33.3,29.6,23.9,95,86,75,30.16,29.94,0,0,0,0.09
2014-2-21,44.1,36.1,34.0,43.0,34.3,29.8,97,93,77,29.98,29.56,0,0,0,0.72
2014-2-22,43.7,36.6,31.7,30.0,23.4,18.7,78,59,41,29.88,29.67,0,0,0,0.00
2014-2-23,36.7,30.9,24.5,23.0,18.6,13.6,74,60,45,29.94,29.82,0,0,0,0.00
2014-2-24,24.4,19.8,15.0,14.2,8.6,4.0,79,62,49,30.02,29.84,0,0,0,0.00
2014-2-25,19.7,14.0,9.6,9.3,5.6,2.4,77,69,55,30.02,29.89,0,0,0,0.00
2014-2-26,14.8,10.6,3.7,11.5,1.5,-6.3,89,67,50,29.88,29.75,0,0,0,0.00
2014-2-27,18.0,11.8,5.2,10.1,2.4,-3.3,82,66,52,30.00,29.52,0,0,0,0.00
2014-2-28,13.6,4.7,-4.1,-3.5,-7.9,-12.1,75,57,35,30.43,30.00,0,0,0,0.00